User: anonymous   Login
Location: ???????
(55.7027°N, 37.3832°E)
Time: 06:21:57
(UTC+00:00)
Language:

SL-16 R/B - Orbit

View from above orbital plane
View from above orbital plane
View from above satellite
View from above satellite

Ground track
Ground track

The orbit is defined by the following mean orbital elements,

1 31793U          26161.60550948 +.00000000 +00000-0 +18227-3 0 00002
2 31793  70.9763 337.0643 0002216 259.0559 164.2324 14.14851547    01
Epoch (UTC): 10 June 2026 14:31:56
Eccentricity: 0.0002216
inclination: 70.9763°
perigee height: 841 km
apogee height: 844 km
right ascension of ascending node: 337.0643°
argument of perigee: 259.0559°
revolutions per day: 14.14851547
mean anomaly at epoch: 164.2324°

The dashed part of the orbit path shows where the satellite is in the earth's shadow,  

DLR